Location: Decatur Area Astronomy Club
(40.0275°N, 88.7810°W)
Time: 23:42:59
(UTC-05:00)

Daily predictions for brighter satellites

Satellite Brightness Start Highest point End
(mag) Time Altitude Azimuth Time Altitude Azimuth Time Altitude Azimuth
Cosmos 2227 Rocket 2.8 19:52:21 10° N 19:57:41 39° ENE 20:02:57 10° SE
Cosmos 1570 Rocket 4.1 19:54:39 10° S 19:59:49 55° ESE 20:04:58 10° NNE
Resurs 1-3 3.6 19:55:58 10° SSE 20:00:20 79° ENE 20:04:45 10° N
CZ-4B DEB 3.0 19:59:19 10° SSE 20:02:31 54° ENE 20:05:44 10° N
ATLAS CENTAUR R/B 4.3 19:58:38 10° WSW 20:02:49 26° NW 20:06:57 10° N
Cosmos 1346 Rocket 3.3 20:00:05 10° N 20:03:51 41° ENE 20:07:37 10° SSE
Cosmos 1536 3.5 20:04:52 10° SSW 20:08:47 59° W 20:12:47 10° N
Meteor 1-5 Rocket 4.1 20:04:17 10° S 20:09:31 64° E 20:14:56 10° NNE
Iridium 4 Rocket 4.5 20:05:34 10° NNE 20:09:40 24° ENE 20:13:28 10° SE
ALOS 2.4 20:06:09 10° SSE 20:10:44 59° ENE 20:15:21 10° N
Cosmos 2082 4.0 20:06:33 10° NNW 20:11:59 48° ENE 20:17:24 10° SE
Cosmos 2297 Rocket 2.9 20:07:52 10° N 20:13:09 38° ENE 20:18:22 10° SE
CZ-3C R/B 4.4 18:59:17 10° WSW 20:18:18 40° SSW 20:28:18 10° SE
Cosmos 1934 Rocket 4.0 20:13:25 10° S 20:19:31 80° E 20:25:46 10° N
Resurs 01 Rocket 2.7 20:15:38 10° S 20:19:54 47° W 20:24:12 10° NNW
USA 186 1.7 20:22:32 10° SSE 20:25:38 55° ENE 20:28:34 10° N
DELTA 2 R/B (1) 3.6 20:20:34 10° W 20:26:09 83° S 20:31:01 14° E
Cosmos 1544 Rocket 4.0 20:24:45 10° SSW 20:29:05 67° W 20:33:30 10° N
ERS-1 Rocket 3.7 20:27:56 12° SE 20:32:01 35° ENE 20:36:32 10° N
OTV 4 1.2 20:37:00 10° W 20:39:48 38° SSW 20:41:08 23° SE
Cosmos 1898 Rocket 4.2 20:35:17 10° N 20:40:12 37° ENE 20:43:26 19° ESE
Cosmos 1743 4.3 20:40:01 18° E 20:40:13 18° E 20:42:54 10° NE
BREEZE-M DEB (TANK) 4.1 20:38:11 10° SW 20:42:06 84° SE 20:56:20 10° ENE
Lacrosse 5 3.0 20:40:29 10° NNW 20:45:01 32° NE 20:48:07 17° E
Tiangong 1 1.8 20:43:03 10° WNW 20:46:04 47° N 20:47:55 20° ENE
Cosmos 1697 Rocket 2.9 20:44:50 10° S 20:50:10 45° ESE 20:55:31 10° NE
SPOT 5 4.1 20:50:56 21° E 20:52:48 26° ENE 20:56:48 10° NNE
Cosmos 1975 2.8 20:50:29 10° S 20:54:35 84° E 20:58:42 10° N
Cosmos 2278 4.3 20:49:30 10° SW 20:55:06 61° WNW 21:00:46 10° NNE
EO 1 Delta rocket 4.5 20:52:17 10° N 20:56:55 63° WNW 21:02:12 10° SSW
Cosmos 468 Rocket 4.1 20:52:09 10° S 20:57:05 50° ESE 21:02:02 10° NNE
SL-24 R/B - RUBIN 2 4.3 20:54:03 10° SSW 20:59:49 78° ESE 21:06:18 10° NE
Cosmos 2173 Rocket 4.3 20:56:19 10° SSE 21:02:21 47° E 21:08:23 10° NNE
H-2A R/B 4.1 20:58:57 10° SSW 21:02:35 39° W 21:06:18 10° NNW
Lacrosse 5 rocket 1.0 21:00:32 10° NW 21:04:14 77° SW 21:05:31 38° SSE
Cosmos 1814 Rocket 4.1 21:01:14 10° S 21:06:23 53° ESE 21:11:33 10° NNE
Cosmos 1605 Rocket 4.5 21:00:17 10° SSW 21:06:33 63° W 21:12:48 10° N
Cosmos 1825 Rocket 4.1 21:07:40 10° N 21:11:49 38° ENE 21:12:30 36° E
CZ-4 DEB 2.8 21:11:14 38° S 21:12:18 72° WSW 21:15:27 10° NNW
Cosmos 1980 Rocket 2.5 21:07:29 10° S 21:12:45 41° ESE 21:18:04 10° NE
ARGOS 4.4 21:12:12 23° E 21:13:11 24° ENE 21:17:24 10° NNE
Cosmos 2100 Rocket 4.0 21:08:08 10° S 21:14:20 65° E 21:20:30 10° NNE
YAOGAN 11 4.3 21:14:06 21° S 21:17:08 74° WSW 21:21:38 10° NNW
Cosmos 2061 Rocket 4.0 21:12:27 12° S 21:18:21 63° E 21:24:31 10° NNE
Cosmos 1953 Rocket 4.2 21:17:18 10° N 21:21:26 36° ENE 21:21:30 36° E
SJ-11-01 4.5 21:18:53 21° S 21:22:02 69° WSW 21:26:43 10° NNW
H-2A R/B 2.0 21:23:39 52° ESE 21:24:12 58° ENE 21:28:16 10° N
Cosmos 858 Rocket 4.4 21:19:10 10° NNW 21:24:29 82° ENE 21:26:37 37° SSE
Terra 4.0 21:28:05 12° NE 21:28:05 12° NE 21:29:17 10° NE
Cosmos 1939 Rocket 3.0 21:26:45 38° S 21:28:16 75° W 21:32:26 10° NNW
Milstar 3 Cent rocket 4.4 21:07:40 10° W 21:28:21 51° SSW 21:34:14 30° SE
MetOp-B 4.3 21:28:29 42° ESE 21:29:49 52° ENE 21:35:00 10° N
OAO 2 Rocket 3.6 21:27:39 10° WSW 21:32:31 48° S 21:33:01 47° SSE
Cosmos 2298 Rocket 4.3 21:28:44 10° NNW 21:34:01 67° WSW 21:36:30 31° S
deb Chang Zheng 4 3.5 21:33:36 10° NNE 21:38:05 86° E 21:39:28 44° S
Nimbus 7 Rocket 4.3 21:32:27 10° NNE 21:38:33 79° ESE 21:43:22 17° S
ASTEX 1 3.4 21:33:55 10° NNE 21:38:52 59° E 21:39:19 56° ESE
Envisat 3.2 21:37:26 32° S 21:39:45 70° WSW 21:44:50 10° NNW
Cosmos 1758 Rocket 4.0 21:36:10 10° N 21:39:54 46° NE 21:39:54 46° NE
Cosmos 2263 Rocket 4.0 21:37:57 10° NNE 21:41:14 16° NE 21:41:51 15° ENE
Meteor 1-21 4.2 21:35:35 10° N 21:41:21 71° E 21:42:53 49° SE
Cosmos 2227 Rocket 3.9 21:36:46 10° NW 21:41:31 28° WSW 21:46:15 10° SSW
Cosmos 2322 Rocket 3.9 21:48:05 18° ENE 21:48:05 18° ENE 21:49:43 10° NE
Cosmos 1937 Rocket 3.5 21:39:54 10° NNW 21:45:11 82° WSW 21:46:32 52° S
H-2A R/B 3.4 21:48:51 23° NE 21:48:51 23° NE 21:52:01 10° NNE
Cosmos 1725 Rocket 4.1 21:47:52 50° ESE 21:48:35 53° E 21:54:36 10° NNE
Cosmos 1459 Rocket 4.1 21:43:34 12° SSW 21:49:13 72° W 21:55:20 10° N
Cosmos 2084 3.9 21:47:19 10° NW 21:51:19 51° WSW 21:51:25 51° SW
Cosmos 2360 4.1 21:53:09 62° SE 21:53:41 65° ESE 21:59:22 10° NNE
Cosmos 1340 3.2 21:50:14 10° NNW 21:53:18 56° NNW 21:53:18 56° NNW
Meteor 2-9 Rocket 4.1 21:56:00 60° E 21:56:00 60° E 22:01:11 10° NNE
Cosmos 2297 Rocket 3.8 21:52:11 10° NW 21:57:01 30° WSW 22:00:22 17° SSW
RESURS DK-1 2.7 21:53:31 10° NNW 21:57:19 62° W 21:57:19 62° W
Cosmos 990 Rocket 3.9 21:54:02 10° NNW 21:59:19 84° WSW 21:59:50 72° S
YAOGAN 6 3.7 22:01:27 43° NNW 22:01:27 43° NNW 22:04:04 10° NNW
Cosmos 2098 Rocket 4.0 21:58:17 46° SSE 22:00:28 75° E 22:06:28 10° N
Cosmos 2227 4.1 21:56:28 10° NNW 22:02:15 75° ENE 22:02:41 71° ESE
Cosmos 2058 Rocket 3.6 22:03:28 51° NNE 22:03:28 51° NNE 22:06:53 10° N
CZ-4B R/B 4.3 21:59:08 10° NNE 22:02:02 35° NE 22:02:02 35° NE
SPOT 1/Viking Rocket 3.5 22:07:00 76° ENE 22:07:00 76° ENE 22:12:09 10° N
Cosmos 1606 Rocket 4.2 22:11:06 50° W 22:11:22 51° W 22:15:42 10° N
DELTA 2 R/B (1) 4.2 22:07:07 10° W 22:11:47 43° SW 22:11:47 43° SW
Cosmos 2233 Rocket 4.3 22:15:54 48° ENE 22:15:54 48° ENE 22:21:00 10° NNE
SL-19 R/B 4.0 22:09:38 10° NNE 22:15:08 87° WNW 22:15:14 85° WSW
MetOp-A 4.5 22:15:31 52° SW 22:16:17 58° WSW 22:21:35 10° NNW
Tiangong 1 4.4 22:19:38 10° WNW 22:19:53 12° WNW 22:19:53 12° WNW
Cosmos 1763 Rocket 4.1 22:23:19 40° WSW 22:24:40 51° WNW 22:29:38 10° N
Lacrosse 5 2.7 22:23:16 10° NW 22:27:19 45° W 22:27:19 45° W
Cosmos 1125 Rocket 4.0 22:23:24 10° NNW 22:27:33 55° N 22:27:33 55° N
SPOT 5 4.1 22:30:12 34° WSW 22:30:42 35° W 22:35:11 10° NNW
BREEZE-M DEB (TANK) 4.3 22:28:26 10° WNW 22:29:28 25° WNW 22:29:28 25° WNW
SL-16 R/B 3.2 22:42:47 37° NNE 22:42:47 37° NNE 22:46:07 10° NNE
USA 215 3.3 22:47:44 69° NE 22:47:49 69° NE 22:54:20 10° NW
ARGOS 4.1 22:53:43 43° W 22:53:43 43° W 22:58:16 10° NNW
Cosmos 1980 Rocket 4.0 22:52:00 10° WSW 22:56:52 29° WNW 23:01:46 10° N
Cosmos 2360 Rocket 4.4 23:01:28 15° NE 23:01:28 15° NE 23:02:24 10° NE
Terra 3.5 23:06:58 31° NNW 23:06:58 31° NNW 23:09:26 10° NNW
BREEZE-M DEB (TANK) 4.2 22:41:22 10° WNW 23:06:48 81° NNE 23:07:28 75° E
Cosmos 2263 Rocket 3.5 23:20:17 10° NNW 23:23:33 37° NNW 23:23:33 37° NNW
BREEZE-M DEB (TANK) 4.1 23:13:42 10° WNW 23:24:47 58° WNW 23:24:47 58° WNW
H-2A R/B 3.9 23:29:29 26° NW 23:29:29 26° NW 23:31:56 10° NNW
Cosmos 2322 Rocket 3.6 23:29:50 35° NW 23:29:50 35° NW 23:34:03 10° N
